[[{"header":{"parameterUnit":"m.s-1","parameterCategory":1,"la1":30.2992,"la2":30.254,"lo1":-89.0895,"lo2":-89.0443,"dy":0.0025,"dx":0.0025,"nx":19,"ny":19,"refTime":"2026-03-20T21:00:00:Z","depth":0,"parameterNumber":2,"parameterNumberName":"U-component_of_WINDS"},"data":[0,0,0,4.4663,4.4667,4.4879,4.488,4.5156,4.5159,0,0,0,0,0,0,0,0,0,0,0,4.4604,4.4606,4.4662,4.4668,4.4879,4.488,4.5156,4.5159,0,0,0,0,0,0,0,0,0,0,0,4.4603,4.4605,4.4608,4.4669,4.4879,4.488,4.5155,4.4994,0,0,0,0,0,0,0,0,0,0,4.4787,4.4737,4.4605,4.4608,4.467,4.4879,4.488,4.4986,4.5004,4.5063,0,4.5117,0,4.5142,4.5178,4.5179,0,0,0,4.4665,4.4722,4.4775,4.4608,4.4672,4.4878,4.4783,4.4996,4.5016,4.5087,4.5121,4.5131,4.5147,4.518,4.5181,4.553,4.5531,0,0,4.4654,4.4644,4.4761,4.4788,4.4756,4.4776,4.479,4.5008,4.5044,4.5122,4.5137,4.5151,4.5182,4.5184,4.5528,4.553,0,0,0,4.4622,4.4636,4.4684,4.4777,4.4815,4.4782,4.4798,4.5035,4.5051,4.514,4.5155,4.5183,4.5187,4.5526,4.5529,4.5604,0,0,0,4.4615,4.4618,4.4679,4.4676,4.4811,4.4927,4.482,4.5036,4.5061,4.5153,4.5183,4.5189,4.5524,4.5528,4.5598,4.5642,0,0,0,4.4589,4.4615,4.4646,4.4675,4.4765,4.4924,4.4953,4.5041,4.507,4.5179,4.519,4.5523,4.5527,4.5593,4.5633,4.5729,0,0,0,4.4559,4.4712,4.4647,4.4824,4.4763,4.4969,4.4952,4.5106,4.5209,4.5185,4.5525,4.5529,4.5591,4.5627,4.5723,4.5807,4.5842,0,0,4.4747,4.4735,4.484,4.4787,4.5002,4.4938,4.5164,4.5268,4.5288,4.5448,4.5457,4.56,4.5632,4.5728,4.6041,4.6068,0,0,0,4.4896,4.4971,4.503,4.5126,4.5208,4.5282,4.5352,4.539,4.5526,4.5368,4.5662,4.5682,4.5738,4.5778,4.5802,4.585,4.5548,4.5547,4.5547,4.5149,4.5164,4.5338,4.5378,4.5472,4.5541,4.5619,4.5682,4.5672,4.5741,4.5788,4.5976,4.6023,4.6041,4.6091,4.5835,4.5835,4.5836,4.5836,4.5425,4.5532,4.5513,4.5674,4.5689,4.5825,4.5897,4.5885,4.6013,4.5943,4.5993,4.5913,4.607,4.6115,4.5842,4.5841,4.584,4.5839,4.5839,4.5591,4.5644,4.5687,4.5827,4.5932,4.5969,4.6092,4.6102,4.6113,4.6163,4.6212,4.6211,4.621,4.6186,4.6187,4.6187,4.6188,4.6188,4.6189,4.5745,4.5791,4.5893,4.5991,4.6053,4.6136,4.6206,4.6268,4.6338,4.6336,4.6336,4.6318,4.6083,4.6023,4.6199,4.6197,4.6196,4.6195,4.6194,4.6016,4.5956,4.6113,4.6175,4.629,4.6393,4.6405,4.6529,4.6581,4.6641,4.6612,4.6437,4.6425,4.6407,4.6357,4.6609,4.6609,4.6609,4.6609,4.6155,4.6149,4.6311,4.6409,4.6507,4.6532,4.6708,4.6764,4.6812,4.6845,4.681,4.6745,4.6726,4.6726,4.67,4.6654,4.6975,4.6976,4.6976,4.6321,4.6325,4.6474,4.6518,4.6609,4.6685,4.6851,4.6964,4.7006,4.6991,4.687,4.6855,4.675,4.6716,4.6697,4.6658,4.6572,0,0]},{"header":{"parameterUnit":"m.s-1","parameterCategory":1,"la1":30.2992,"la2":30.254,"lo1":-89.0895,"lo2":-89.0443,"dy":0.0025,"dx":0.0025,"nx":19,"ny":19,"refTime":"2026-03-20T21:00:00:Z","depth":0,"parameterNumber":3,"parameterNumberName":"V-component_of_WINDS"},"data":[0,0,0,2.4928,2.493,2.4994,2.4994,2.5082,2.5083,0,0,0,0,0,0,0,0,0,0,0,2.4914,2.4915,2.4928,2.493,2.4994,2.4994,2.5082,2.5083,0,0,0,0,0,0,0,0,0,0,0,2.4914,2.4915,2.4916,2.493,2.4994,2.4994,2.5082,2.5031,0,0,0,0,0,0,0,0,0,0,2.4968,2.496,2.4915,2.4916,2.493,2.4994,2.4994,2.5028,2.5034,2.5056,0,2.5079,0,2.5082,2.509,2.509,0,0,0,2.4926,2.4956,2.4968,2.4916,2.4931,2.4993,2.4964,2.5032,2.5038,2.5064,2.508,2.5083,2.5084,2.509,2.5091,2.5235,2.5236,0,0,2.4922,2.4928,2.4964,2.4973,2.4965,2.4962,2.4966,2.5035,2.5053,2.508,2.5085,2.5085,2.5091,2.5092,2.5234,2.5235,0,0,0,2.4915,2.4926,2.4937,2.4969,2.498,2.4964,2.4968,2.5049,2.5052,2.5086,2.5086,2.5091,2.5093,2.5233,2.5235,2.5284,0,0,0,2.4912,2.4922,2.4936,2.494,2.4979,2.5016,2.4981,2.5048,2.5055,2.5086,2.5091,2.5093,2.5232,2.5234,2.5281,2.5307,0,0,0,2.4908,2.4921,2.4932,2.494,2.4968,2.5015,2.5022,2.5049,2.5056,2.509,2.5094,2.5232,2.5234,2.5278,2.5302,2.5347,0,0,0,2.4906,2.4976,2.4933,2.5011,2.4968,2.5045,2.5021,2.5078,2.5113,2.5092,2.5232,2.5234,2.5277,2.5299,2.5344,2.5387,2.5405,0,0,2.4997,2.4987,2.5032,2.4996,2.5083,2.5035,2.5128,2.5154,2.5151,2.5207,2.521,2.5282,2.5302,2.5346,2.5505,2.5519,0,0,0,2.5063,2.5096,2.5117,2.5152,2.5173,2.5194,2.5204,2.5213,2.5261,2.5181,2.531,2.5321,2.5347,2.5368,2.538,2.5402,2.5244,2.5244,2.5243,2.5203,2.5195,2.5269,2.527,2.5303,2.5313,2.5338,2.5352,2.5335,2.5365,2.5382,2.5479,2.5503,2.5512,2.5535,2.5404,2.5404,2.5404,2.5404,2.5336,2.5382,2.5356,2.542,2.5411,2.5463,2.5475,2.546,2.5507,2.5466,2.5489,2.5445,2.5529,2.5548,2.5408,2.5407,2.5407,2.5406,2.5406,2.5427,2.5448,2.5458,2.5506,2.5544,2.554,2.5587,2.5577,2.5567,2.5589,2.5606,2.5605,2.5603,2.5598,2.5598,2.5599,2.5599,2.5599,2.5599,2.5518,2.5528,2.5569,2.5597,2.5617,2.5642,2.5652,2.5671,2.569,2.5679,2.5679,2.5658,2.5538,2.5509,2.5605,2.5604,2.5603,2.5602,2.5602,2.5658,2.5624,2.5688,2.5708,2.574,2.5777,2.5763,2.5803,2.5817,2.584,2.5814,2.5727,2.5716,2.5706,2.5681,2.5816,2.5816,2.5816,2.5816,2.5735,2.5728,2.579,2.5823,2.5854,2.5847,2.5918,2.5926,2.5928,2.5936,2.5915,2.5881,2.5871,2.5866,2.5852,2.5829,2.5998,2.5998,2.5999,2.582,2.5815,2.5878,2.5881,2.5905,2.5925,2.5991,2.6029,2.6025,2.6006,2.5942,2.5935,2.588,2.5863,2.5844,2.5823,2.578,0,0]}]]